Weather History for Corsicana, TX

Change the Weather History Date:

Monday, April 22, 2013

  Actual Average (KACT) Record (KACT)
Temperature  
Mean Temperature 65 °F 68 °F  
Max Temperature 79 °F 79 °F 92 °F (2009)
Min Temperature 51 °F 56 °F 39 °F (1931)
Degree Days  
Heating Degree Days 0 2  
Month to date heating degree days 70  
Since 1 July heating degree days 2128  
Cooling Degree Days 0 4  
Month to date cooling degree days 68  
Year to date cooling degree days 111  
Growing Degree Days 15 (Base 50)    
Moisture  
Dew Point 54 °F    
Average Humidity 64    
Maximum Humidity 83    
Minimum Humidity 48    
Precipitation  
Precipitation 0.00 in 0.11 in 2.59 in (1985)
Month to date precipitation 1.83  
Year to date precipitation 9.73  
Snow  
Snow 0.00 in 0.00 in 0.00 in ()
Month to date snowfall 0.2  
Since 1 July snowfall 1.2  
Snow Depth -    
Sea Level Pressure  
Sea Level Pressure 30.02 in    
Wind  
Wind Speed 9 mph (SSE)    
Max Wind Speed 16 mph    
Max Gust Speed 23 mph    
Visibility 10 miles    
Events      
T = Trace of Precipitation, MM = Missing Value Source: NWS Daily Summary

Daily Weather History Graph

Daily Weather History Graph

Search for Another Location

Airport:

Trip Planner

Search our weather history database for the weather conditions in past years. The results will help you decide how hot, cold, wet, or windy it might be!

Date:

Astronomy

Apr. 22, 2013 Rise Set
Actual Time 6:48 AM CDT 8:00 PM CDT
Civil Twilight 6:23 AM CDT 8:25 PM CDT
Nautical Twilight 5:52 AM CDT 8:55 PM CDT
Astronomical Twilight 5:21 AM CDT 9:27 PM CDT
Moon 5:00 PM CDT (4/22) 4:31 AM CDT (4/22)
Length of Visible Light 14h 02m
Length of Day
13h 11m
Waxing Gibbous, 88% of the Moon is Illuminated
Apr 22
Waxing Gibbous
Apr 25
Full
May 2
Last Quarter
May 9
New
May 17
First Quarter

Hourly Weather History & Observations

Time (CDT) Temp. Dew Point Humidity Pressure Visibility Wind Dir Wind Speed Gust Speed Precip Events Conditions
12:53 AM 59.0 °F 48.0 °F 67% 30.12 in 10.0 mi ESE 8.1 mph - N/A   Partly Cloudy
1:53 AM 55.9 °F 46.9 °F 72% 30.11 in 10.0 mi ESE 5.8 mph - N/A   Scattered Clouds
2:53 AM 57.9 °F 48.0 °F 70% 30.09 in 10.0 mi SE 6.9 mph - N/A   Overcast
3:53 AM 54.0 °F 46.9 °F 77% 30.09 in 10.0 mi South 6.9 mph - N/A   Scattered Clouds
4:53 AM 54.0 °F 46.0 °F 75% 30.09 in 10.0 mi SSE 4.6 mph - N/A   Clear
5:53 AM 52.0 °F 46.0 °F 80% 30.09 in 10.0 mi SSE 5.8 mph - N/A   Clear
6:53 AM 51.1 °F 46.0 °F 83% 30.10 in 9.0 mi SSE 5.8 mph - N/A   Clear
7:53 AM 55.0 °F 50.0 °F 83% 30.11 in 8.0 mi SSE 4.6 mph - N/A   Clear
8:53 AM 61.0 °F 54.0 °F 78% 30.11 in 8.0 mi South 6.9 mph - N/A   Clear
9:53 AM 64.9 °F 55.0 °F 70% 30.11 in 10.0 mi South 11.5 mph - N/A   Clear
10:53 AM 69.1 °F 55.9 °F 63% 30.11 in 10.0 mi SSE 15.0 mph 20.7 mph N/A   Partly Cloudy
11:32 AM 69.8 °F 57.2 °F 64% 30.10 in 10.0 mi South 9.2 mph - N/A   Mostly Cloudy
11:50 AM 71.6 °F 55.4 °F 57% 30.10 in 10.0 mi South 10.4 mph 18.4 mph N/A   Mostly Cloudy
11:53 AM 71.1 °F 55.9 °F 59% 30.09 in 10.0 mi SSE 12.7 mph - N/A   Scattered Clouds
12:53 PM 73.0 °F 55.9 °F 55% 30.06 in 10.0 mi South 15.0 mph - N/A   Clear
1:53 PM 75.0 °F 55.9 °F 51% 30.02 in 10.0 mi SSE 15.0 mph 21.9 mph N/A   Clear
2:53 PM 75.9 °F 57.0 °F 52% 29.99 in 10.0 mi SSE 12.7 mph - N/A   Clear
3:53 PM 78.1 °F 57.9 °F 50% 29.95 in 10.0 mi SSE 16.1 mph 23.0 mph N/A   Clear
4:53 PM 79.0 °F 57.9 °F 48% 29.92 in 10.0 mi SSE 13.8 mph - N/A   Clear
5:53 PM 78.1 °F 57.0 °F 48% 29.90 in 10.0 mi SSE 12.7 mph - N/A   Clear
6:53 PM 77.0 °F 57.0 °F 50% 29.88 in 10.0 mi SSE 13.8 mph - N/A   Clear
7:53 PM 73.9 °F 57.0 °F 55% 29.88 in 10.0 mi SE 8.1 mph - N/A   Clear
8:53 PM 70.0 °F 57.0 °F 63% 29.89 in 10.0 mi SE 8.1 mph - N/A   Clear
9:53 PM 70.0 °F 57.0 °F 63% 29.90 in 9.0 mi SE 12.7 mph - N/A   Clear
10:53 PM 68.0 °F 55.9 °F 65% 29.90 in 10.0 mi SE 11.5 mph - N/A   Clear
11:53 PM 66.9 °F 55.9 °F 68% 29.91 in 10.0 mi SSE 13.8 mph - N/A   Clear